Stations météo

réclame
Mon MeteoGroup
Brüssel, Belgique (6451): Température de l'air & dewpoint: 11.02.2019 15:00:00 - 17.02.2019 15:00:00 (CET)Brüssel, Belgique (6451): Vitesse du vent & gusts: 11.02.2019 15:00:00 - 17.02.2019 15:00:00 (CET)Brüssel, Belgique (6451): Direction du vent: 11.02.2019 15:00:00 - 17.02.2019 15:00:00 (CET)Brüssel, Belgique (6451): reduced air pressure: 11.02.2019 15:00:00 - 17.02.2019 15:00:00 (CET)Brüssel, Belgique (6451): visibility: 11.02.2019 15:00:00 - 17.02.2019 15:00:00 (CET)
Date & Time tt [°C] td [°C] ff [km/h] ff [knt] fx [km/h] fx [knt] dd ppp [hPa] vv [km]
17.02.2019 15:00:00 15,9 1,7 16 9 32 18 SSW 1019,3 10
17.02.2019 14:00:00 15,6 0,0 22 12 32 18 S 1019,7 10
17.02.2019 13:00:00 14,5 2,5 15 8 - - S 1020,1 10
17.02.2019 12:00:00 12,2 2,1 13 7 22 12 S 1020,7 10
17.02.2019 11:00:00 9,4 2,3 13 7 22 12 S 1020,9 10
17.02.2019 10:00:00 7,3 1,6 15 8 - - S 1021,3 10
17.02.2019 09:00:00 6,4 1,4 15 8 22 12 S 1021,3 10
17.02.2019 08:00:00 5,9 0,6 15 8 22 12 S 1021,6 10
17.02.2019 07:00:00 5,9 0,6 15 8 - - S 1021,6 10
17.02.2019 06:00:00 5,1 1,3 13 7 18 10 S 1022,1 10
17.02.2019 05:00:00 5,1 1,3 15 8 18 10 S 1022,4 10
17.02.2019 04:00:00 5,4 1,2 15 8 - - S 1022,9 10
17.02.2019 03:00:00 5,0 -1,0 11 6 - - S - 10
17.02.2019 02:00:00 - - - - - - - - -
17.02.2019 01:00:00 5,0 0,0 11 6 - - S - 10
17.02.2019 00:00:00 6,0 0,5 11 6 14 8 S 1024,7 10
16.02.2019 23:00:00 5,6 0,2 11 6 14 8 S 1024,9 10
16.02.2019 22:00:00 5,7 0,2 5 3 - - S 1025,1 10
16.02.2019 21:00:00 6,6 1,1 8 4 11 6 SW 1025,1 10
16.02.2019 20:00:00 7,8 2,7 9 5 11 6 S 1025,2 10
16.02.2019 19:00:00 8,6 3,3 8 4 - - S 1025,3 10
16.02.2019 18:00:00 11,8 0,5 5 3 11 6 S 1025,2 10
16.02.2019 17:00:00 13,2 0,6 8 4 14 8 S 1025,5 10
16.02.2019 16:00:00 13,8 0,4 11 6 - - WSW 1025,8 10
16.02.2019 15:00:00 14,2 1,5 11 6 22 12 WSW 1026,0 10
16.02.2019 14:00:00 13,4 3,2 13 7 22 12 SW 1026,3 10
16.02.2019 13:00:00 12,5 2,9 9 5 - - WSW 1026,7 10
16.02.2019 12:00:00 11,3 2,1 15 8 25 14 WSW 1027,0 10
16.02.2019 11:00:00 10,4 1,7 11 6 22 12 SW 1026,7 10
16.02.2019 10:00:00 7,9 0,8 8 4 - - SSW 1026,8 10
16.02.2019 09:00:00 4,8 0,7 11 6 14 8 S 1026,3 10
16.02.2019 08:00:00 3,3 0,3 11 6 14 8 S 1026,1 10
16.02.2019 07:00:00 3,3 0,3 11 6 - - S 1025,8 10
16.02.2019 06:00:00 4,0 0,5 15 8 18 10 S 1025,7 10
16.02.2019 05:00:00 5,4 0,8 15 8 18 10 S 1025,7 10
16.02.2019 04:00:00 4,3 0,5 13 7 - - S 1025,9 10
16.02.2019 03:00:00 5,6 0,8 13 7 14 8 S 1026,2 10
16.02.2019 02:00:00 5,2 1,0 9 5 18 10 S 1026,5 10
16.02.2019 01:00:00 6,7 0,9 15 8 - - S 1026,5 10
16.02.2019 00:00:00 5,6 0,9 11 6 18 10 S 1026,7 10
15.02.2019 23:00:00 7,8 0,3 15 8 18 10 S 1026,7 10
15.02.2019 22:00:00 6,8 0,9 11 6 - - S 1027,0 10
15.02.2019 21:00:00 6,5 1,7 9 5 11 6 S 1027,3 10
15.02.2019 20:00:00 8,5 1,5 9 5 11 6 S 1027,6 10
15.02.2019 19:00:00 12,3 1,6 4 2 - - SE 1027,7 10
15.02.2019 18:00:00 13,6 2,8 4 2 18 10 SSE 1027,7 10
15.02.2019 17:00:00 15,3 2,6 11 6 18 10 SSE 1027,9 10
15.02.2019 16:00:00 16,3 0,7 9 5 - - SE 1028,5 10
15.02.2019 15:00:00 16,1 2,5 11 6 14 8 SE 1029,1 10
15.02.2019 14:00:00 15,3 2,9 9 5 14 8 SE 1030,0 10
15.02.2019 13:00:00 14,0 3,3 9 5 - - SSE 1030,8 10
15.02.2019 12:00:00 12,5 0,9 9 5 14 8 SSE 1031,3 10
15.02.2019 11:00:00 10,1 0,2 11 6 22 12 S 1031,4 10
15.02.2019 10:00:00 8,2 -0,8 15 8 - - S 1031,4 10
15.02.2019 09:00:00 5,2 -1,6 16 9 22 12 S 1031,8 10
15.02.2019 08:00:00 3,3 -1,5 5 3 22 12 SE 1031,7 10
15.02.2019 07:00:00 4,6 -1,5 15 8 - - S 1031,4 10
15.02.2019 06:00:00 3,0 -1,5 9 5 14 8 S 1031,7 10
15.02.2019 05:00:00 0,0 -2,0 8 4 11 6 SE 1031,9 10
15.02.2019 04:00:00 2,1 -1,6 0 0 - - N 1032,1 10
15.02.2019 03:00:00 2,1 -1,8 2 1 11 6 - 1032,5 10
15.02.2019 02:00:00 3,0 -1,1 5 3 7 4 ESE 1033,0 10
15.02.2019 01:00:00 4,2 -1,3 2 1 - - - 1033,1 10
15.02.2019 00:00:00 6,0 -0,4 9 5 14 8 SSE 1032,8 10
14.02.2019 23:00:00 6,4 -0,2 9 5 14 8 S 1033,0 10
14.02.2019 22:00:00 5,8 0,6 5 3 - - SSE 1033,0 10
14.02.2019 21:00:00 6,3 1,4 9 5 11 6 SE 1033,1 10
14.02.2019 20:00:00 9,4 1,7 8 4 7 4 ESE 1033,2 10
14.02.2019 19:00:00 9,9 0,6 4 2 - - SE 1033,3 10
14.02.2019 18:00:00 11,9 0,0 4 2 11 6 ESE 1033,4 10
14.02.2019 17:00:00 12,8 0,3 8 4 18 10 ESE 1033,7 10
14.02.2019 16:00:00 13,1 -0,7 11 6 - - SE 1034,2 10
14.02.2019 15:00:00 13,2 -1,9 8 4 14 8 ESE 1034,6 10
14.02.2019 14:00:00 12,7 -0,3 8 4 14 8 ESE 1034,9 10
14.02.2019 13:00:00 11,0 -0,3 5 3 - - SE 1035,7 10
14.02.2019 12:00:00 9,0 1,1 8 4 11 6 SSE 1036,2 10
14.02.2019 11:00:00 6,3 0,7 5 3 7 4 ESE 1036,1 10
14.02.2019 10:00:00 3,4 -0,4 4 2 - - SE 1036,2 10
14.02.2019 09:00:00 0,6 -1,6 9 5 11 6 ESE 1036,4 10
14.02.2019 08:00:00 0,5 -2,4 2 1 4 2 - 1035,8 10
14.02.2019 07:00:00 0,2 -2,4 2 1 - - - 1035,3 10
14.02.2019 06:00:00 -0,2 -1,9 4 2 7 4 E 1035,3 10
14.02.2019 05:00:00 1,1 -2,1 2 1 7 4 - 1035,2 10
14.02.2019 04:00:00 0,8 -1,6 5 3 - - SSE 1035,1 10
14.02.2019 03:00:00 0,3 -0,9 4 2 11 6 - 1035,4 10
14.02.2019 02:00:00 0,0 -1,0 7 4 7 4 S 1035,2 25
14.02.2019 01:00:00 0,6 -0,6 4 2 - - - 1035,6 10
14.02.2019 00:00:00 0,8 -0,1 5 3 7 4 SE 1035,5 10
13.02.2019 23:00:00 1,4 0,1 5 3 7 4 SSW 1035,7 10
13.02.2019 22:00:00 2,0 0,6 4 2 - - SSE 1036,0 10
13.02.2019 21:00:00 3,2 0,5 5 3 7 4 S 1035,9 10
13.02.2019 20:00:00 3,7 0,7 5 3 11 6 SSW 1036,1 10
13.02.2019 19:00:00 4,3 0,9 5 3 - - SSW 1036,1 10
13.02.2019 18:00:00 5,8 1,3 9 5 14 8 SSW 1035,9 10
13.02.2019 17:00:00 7,3 1,6 9 5 18 10 WSW 1036,0 10
13.02.2019 16:00:00 7,7 1,2 11 6 - - S 1036,0 15
13.02.2019 15:00:00 8,0 0,4 5 3 14 8 SSW 1035,9 10
13.02.2019 14:00:00 7,5 1,0 9 5 14 8 SW 1036,6 10
13.02.2019 13:00:00 6,8 0,3 9 5 - - SW 1037,2 10
13.02.2019 12:00:00 6,3 1,0 13 7 25 14 SW 1037,3 10
13.02.2019 11:00:00 5,6 0,4 18 10 25 14 SW 1037,1 10
13.02.2019 10:00:00 3,8 -0,4 16 9 - - SSW 1037,0 10
13.02.2019 09:00:00 2,2 -0,7 16 9 22 12 SSW 1036,8 10
13.02.2019 08:00:00 0,9 -1,1 16 9 22 12 SSW 1036,5 10
13.02.2019 07:00:00 0,9 -1,0 16 9 - - SSW 1036,2 10
13.02.2019 06:00:00 1,0 -0,7 16 9 22 12 S 1036,3 10
13.02.2019 05:00:00 2,1 -0,1 16 9 25 14 SSW 1036,4 10
13.02.2019 04:00:00 2,2 -0,1 16 9 - - SSW 1036,4 10
13.02.2019 03:00:00 2,4 0,2 16 9 22 12 SSW 1036,9 10
13.02.2019 02:00:00 2,3 0,7 15 8 18 10 SSW 1037,0 10
13.02.2019 01:00:00 2,6 1,1 15 8 - - SW 1036,8 8
13.02.2019 00:00:00 3,0 1,2 15 8 22 12 SW 1036,6 8
12.02.2019 23:00:00 3,5 1,5 13 7 22 12 SSW 1036,2 8
12.02.2019 22:00:00 4,1 2,1 15 8 - - SSW 1036,1 10
12.02.2019 21:00:00 4,6 2,3 15 8 22 12 SSW 1036,1 10
12.02.2019 20:00:00 4,9 1,9 11 6 18 10 SSW 1035,7 10
12.02.2019 19:00:00 4,8 2,3 11 6 - - S 1035,7 10
12.02.2019 18:00:00 5,9 2,7 11 6 18 10 SSW 1035,4 10
12.02.2019 17:00:00 6,8 2,9 14 8 18 10 WSW 1035,4 15
12.02.2019 16:00:00 7,5 2,5 15 8 - - SW 1035,3 10
12.02.2019 15:00:00 8,1 3,7 13 7 22 12 SW 1035,0 10
12.02.2019 14:00:00 7,1 2,8 16 9 22 12 SW 1035,2 10
12.02.2019 13:00:00 6,5 3,5 15 8 - - SW 1035,6 10
12.02.2019 12:00:00 5,3 3,0 15 8 22 12 SW 1035,6 10
12.02.2019 11:00:00 3,8 2,9 13 7 22 12 SSW 1035,2 7
12.02.2019 10:00:00 2,2 1,7 13 7 - - SSW 1035,3 3,0
12.02.2019 09:00:00 1,1 0,5 15 8 18 10 SSW 1034,9 2,5
12.02.2019 08:00:00 0,0 -0,6 13 7 14 8 S 1034,3 0,5
12.02.2019 07:00:00 0,5 0,2 9 5 - - S 1033,8 3,0
12.02.2019 06:00:00 0,6 0,4 9 5 14 8 SSW 1033,8 1,2
12.02.2019 05:00:00 0,3 0,1 11 6 14 8 SSW 1033,9 2,2
12.02.2019 04:00:00 0,3 0,0 11 6 - - SSW 1033,9 1,2
12.02.2019 03:00:00 0,6 0,1 9 5 11 6 SW 1034,0 8
12.02.2019 02:00:00 0,9 0,1 9 5 11 6 SW 1033,7 8
12.02.2019 01:00:00 1,3 0,5 9 5 - - WSW 1033,4 8
12.02.2019 00:00:00 1,5 0,7 9 5 11 6 WSW 1032,7 10
11.02.2019 23:00:00 2,7 1,2 8 4 11 6 W 1031,9 10
11.02.2019 22:00:00 2,6 1,1 8 4 - - WNW 1031,5 10
11.02.2019 21:00:00 3,4 1,7 9 5 18 10 WNW 1031,1 10
11.02.2019 20:00:00 4,4 2,1 11 6 14 8 WNW 1030,2 10
11.02.2019 19:00:00 4,8 2,0 9 5 - - NW 1029,2 10
11.02.2019 18:00:00 5,9 2,6 15 8 29 16 NW 1028,2 10
11.02.2019 17:00:00 6,5 2,7 21 11 32 18 NW 1026,8 10
11.02.2019 16:00:00 6,8 2,2 18 10 - - NW 1025,3 10
11.02.2019 15:00:00 7,0 1,8 18 10 32 18 WNW 1024,4 10

tt = Température de l'air
td = dewpoint
ff = Vitesse du vent
fx = gusts
dd = Direction du vent
ppp = reduced air pressure
vv = visibility

stations d'obs. à proximité